[Iaude] MPEC U33: 2023 TT16 [a=1.78,e=0.68,i=2.4,H=27.7]

mpec at marsden.cfa.harvard.edu mpec at marsden.cfa.harvard.edu
Mon Oct 16 18:08:16 EDT 2023


M.P.E.C. 2023-U33                              Issued 2023 October 16, 22:04 UT

     The Minor Planet Electronic Circulars contain information on unusual
         minor planets, routine data on comets and natural satellites,
         and occasional editorial announcements.  They are published
    on behalf of Division F of the International Astronomical Union by the
          Minor Planet Center, Smithsonian Astrophysical Observatory,
                          Cambridge, MA 02138, U.S.A.
			  
             Prepared using the Tamkin Foundation Computer Network

                              MPC at CFA.HARVARD.EDU
            URL https://www.minorplanetcenter.net/    ISSN 1523-6714

                                   2023 TT16                                    


Observations:
     K23T16T  C2023 10 12.35452801 43 01.420+12 51 02.81         22.76GVEU033F51
     K23T16T  C2023 10 12.36612001 43 02.611+12 51 02.96         22.17GVEU033F51
     K23T16T  C2023 10 12.38054301 43 04.111+12 51 02.51         21.79GVEU033F51
     K23T16T  C2023 10 12.39220001 43 05.279+12 51 02.28         21.70GVEU033F51
     K23T16T* C2023 10 15.52314402 02 04.729+12 33 03.73         20.48wXEU033F51
     K23T16T  C2023 10 15.53378702 02 12.859+12 32 50.98         20.34wXEU033F51
     K23T16T  C2023 10 15.54464702 02 21.263+12 32 37.63         20.21wXEU033F51
     K23T16T  C2023 10 15.61310502 03 17.902+12 31 03.21         20.05GVEU033F51
     K23T16T  C2023 10 15.61374302 03 18.441+12 31 02.25         20.10GVEU033F51
     K23T16T bC2023 10 16.05364702 12 23.38 +12 17 48.6          19.8 GVEU033L01
     K23T16T bC2023 10 16.05513002 12 25.50 +12 17 46.4          19.7 GVEU033L01
     K23T16T bC2023 10 16.05661102 12 27.60 +12 17 42.9          19.8 GVEU033L01
     K23T16T IC2023 10 16.05876502 12 30.70 +12 17 37.9          19.7 GVEU033L01
     K23T16T hC2023 10 16.84535602 50 36.68 +11 17 16.8          18.8 GVEU033L01
     K23T16T hC2023 10 16.84693702 50 44.86 +11 17 03.1          18.9 GVEU033L01
     K23T16T hC2023 10 16.84772202 50 48.97 +11 16 55.4          19.0 GVEU033L01
     K23T16T hC2023 10 16.84850702 50 53.02 +11 16 48.6          18.9 GVEU033L01
     K23T16T KC2023 10 16.85391 02 51 15.97 +11 15 56.0          18.9 VqEU033L04
     K23T16T KC2023 10 16.85704 02 51 32.30 +11 15 27.0          18.9 VqEU033L04
     K23T16T KC2023 10 16.85869 02 51 40.93 +11 15 11.6          19.0 VqEU033L04
     K23T16T KC2023 10 16.86599002 52 24.72 +11 13 55.9          18.8 GXEU033595
     K23T16T KC2023 10 16.86940702 52 43.06 +11 13 22.0          18.7 GXEU033595

Observer details:
595 Farra d'Isonzo.  Observer E. Pettarin.  0.61-m f/4.5 reflector + CCD.
F51 Pan-STARRS 1, Haleakala.  Observers J. Bulger, T. Lowe, P. Minguez, A.
    Schultz, I. Smith.  Measurers K. Chambers, T. de Boer, J. Fairlamb, H.
    Gao, M. Huber, C.-C. Lin, E. Magnier, Y. Ramanjooloo, R. Wainscoat, R.
    Weryk.  1.8-m Ritchey-Chretien + CCD.
L01 Visnjan Observatory, Tican.  Observers K. Korlevi, K. Korlevic, I. Lyon.
    Measurer K. Korlevic.  1.0-m f/2.9 reflector + CCD.
L04 ROASTERR-1 Observatory, Cluj-Napoca.  Observer L. Hudin.  0.3-m f/5
    reflector + CCD.

Orbital elements:
2023 TT16                                                Earth MOID = 0.0014 AU
Epoch 2023 Sept. 13.0 TT = JDT 2460200.5                Veres                   
M 325.65529              (2000.0)            P               Q                  
n   0.41469018     Peri.  274.86793     -0.44993353     -0.89292695             
a   1.7809575      Node   201.89218     +0.83499454     -0.41444539             
e   0.6776814      Incl.    2.38764     +0.31677112     -0.17583085             
P   2.38           H   27.77          G   0.15           U   9                  
Residuals in seconds of arc
231012 F51  0.1+  0.1+    231015 F51  0.1-  0.1+    231016 L01  0.4+  0.4+
231012 F51  0.2-  0.2+    231016 L01  0.9-  1.2-    231016 L04  0.1-  0.4-
231012 F51  0.1+  0.0     231016 L01  0.4-  0.1-    231016 L04  0.2+  0.3+
231012 F51  0.1-  0.1+    231016 L01  0.1-  0.3-    231016 L04  0.1+  0.6+
231015 F51  0.5+  0.1+    231016 L01  0.8+  0.5-    231016 595  0.1-  0.2+
231015 F51  0.5+  0.1+    231016 L01  0.7-  0.2-    231016 595  0.2-  0.3-
231015 F51  0.2+  0.2+    231016 L01  0.2-  0.5+
231015 F51  0.2+  0.1+    231016 L01  0.6+  0.0

Ephemeris:
2023 TT16                a,e,i = 1.78, 0.68, 2                   q = 0.5740
Date    TT    R. A. (2000) Decl.     Delta      r    Elong.  Phase     V
2023 09 16    01 25 58.0 +12 07 08   0.3955  1.3575   148.1    23.1    27.5
...
2023 10 01    01 32 38.5 +12 45 26   0.1992  1.1915   160.9    16.0    25.5
...
2023 10 09    01 37 37.2 +12 53 15   0.1021  1.0991   167.6    11.3    23.7
...
2023 10 15    01 55 58.1 +12 40 27   0.03161 1.0285   169.6    10.1    21.0
2023 10 16    02 11 11.5 +12 23 39   0.02004 1.0167   167.2    12.5    20.1
2023 10 17    03 05 58.5 +10 56 32   0.0087891.0048   155.1    24.7    18.6
...
2023 10 23    13 17 25.3 -13 07 54   0.06219 0.9336     7.7   171.8
...
2023 10 31    13 26 12.5 -13 01 28   0.1583  0.8393    12.7   164.9
...
2023 11 15    13 37 21.8 -13 19 27   0.3621  0.6778    24.8   142.3    31.9

M. P. C. Staff               (C) Copyright 2023 MPC           M.P.E.C. 2023-U33




More information about the Iaude mailing list